ABS-3A (40424 NORAD) Tracking and Keplerian Element Data

This shows tracking and keplerian element data for the satellite.

Feedback or suggestion? Click here.




ElementValue
Catalog40424
NameABS-3A
Epoch Orbit1554
Epoch Day146.15674483
Epoch Year2019
RAAN344.3134
Inclination0.0089
Eccentricity0.0002327
Argument of Perigee4.2748
Mean Anonmoly308.2839
Mean Motion1.0027018
Decay Rate-2.9E-07
L11 40424U 15010A 19146.15674483 -.00000029 00000-0 00000+0 0 9991
L22 40424 0.0089 344.3134 0002327 4.2748 308.2839 1.00270180 15541

Live tracking and technical data element details for ABS-3A (NORAD 40424). ABS-3A can be tracked NOW for your location showing map with azimuth and elevation plus other details from your city location.

Track the satellite on the map from your city or location and see movement details for azimuth, elevation, latitude, longitude, range, height, and movement on the map or in text.







IsCatalogInMostPopularTable: catalog: 40424, numindb: 201
Update: records affected: 1



GetName: 40424 ABS-3A

Hit Count: updated at: Sun, 26 May 2019 20:07:54 GMT